QPF
0.00 0.00 0.00 0.00 0.00 0.00 0.00 0.00 0.00 0.00 0.00 0.00 0.00 0.00 0.00 0.01 0.01 0.00 0.00 0.00 0.02 0.00 0.00 0.00 0.00 0.02 0.04 0.01 0.00 0.02 0.01 0.00 0.00 0.00 0.00 0.00 0.00 0.00 0.00 0.00 0.00 0.00
0.00 0.00 0.00 0.00 0.00 0.00 0.00 0.00 0.00 0.00 0.00 0.00 0.00 0.00 0.00 0.00 0.00 0.00 0.00 0.00 0.00 0.00 0.01 0.01 0.00 0.00 0.00 0.00 0.00 0.00 0.01 0.00 0.00 0.00 0.00 0.00 0.00 0.00 0.00 0.00 0.00 0.00
0.00 0.00 0.00 0.00 0.00 0.00 0.00 0.00 0.00 0.00 0.00 0.00 0.00 0.00 0.00 0.00 0.00 0.00 0.00 0.00 0.00 0.00 0.00 0.04 0.00 0.00 0.00 0.00 0.01 0.00 0.00 0.00 0.00 0.00 0.00 0.00 0.00 0.00 0.00 0.00 0.00 0.00
0.00 0.00 0.00 0.00 0.00 0.00 0.00 0.00 0.00 0.00 0.00 0.00 0.00 0.00 0.00 0.00 0.00 0.00 0.00 0.00 0.00 0.00 0.00 0.00 0.00 0.00 0.00 0.00 0.01 0.00 0.00 0.00 0.00 0.00 0.00 0.00 0.00 0.00 0.00 0.00 0.00 0.00
0.00 0.00 0.00 0.00 0.00 0.00 0.00 0.00 0.00 0.00 0.00 0.00 0.00 0.00 0.00 0.00 0.00 0.00 0.00 0.00 0.00 0.00 0.00 0.00 0.00 0.01 0.01 0.00 0.00 0.00 0.00 0.01 0.01 0.00 0.00 0.00 0.00 0.00 0.00 0.00 0.00 0.00
0.00 0.00 0.00 0.00 0.00 0.00 0.00 0.00 0.00 0.00 0.00 0.00 0.00 0.00 0.00 0.00 0.00 0.00 0.00 0.00 0.00 0.00 0.00 0.00 0.00 0.00 0.00 0.00 0.00 0.00 0.00 0.01 0.01 0.00 0.00 0.00 0.00 0.00 0.00 0.00 0.00 0.00
0.00 0.00 0.00 0.00 0.00 0.00 0.00 0.00 0.00 0.00 0.00 0.00 0.00 0.00 0.00 0.00 0.00 0.00 0.00 0.00 0.00 0.00 0.00 0.00 0.00 0.00 0.00 0.00 0.01 0.00 0.00 0.00 0.02 0.00 0.00 0.00 0.00 0.00 0.00 0.00 0.00 0.00
0.00 0.00 0.00 0.00 0.00 0.00 0.00 0.00 0.00 0.00 0.00 0.00 0.00 0.00 0.00 0.00 0.00 0.00 0.00 0.00 0.00 0.00 0.00 0.00 0.00 0.00 0.00 0.00 0.00 0.00 0.00 0.00 0.00 0.01 0.00 0.00 0.00 0.00 0.00 0.00 0.00 0.00
0.00 0.00 0.00 0.00 0.00 0.00 0.00 0.00 0.00 0.00 0.00 0.00 0.00 0.00 0.00 0.00 0.00 0.00 0.00 0.00 0.00 0.00 0.00 0.00 0.00 0.00 0.00 0.00 0.00 0.00 0.00 0.00 0.00 0.00 0.00 0.01 0.00 0.00 0.00 0.00 0.00 0.00
0.00 0.00 0.00 0.00 0.00 0.00 0.00 0.00 0.00 0.00 0.00 0.00 0.00 0.00 0.00 0.00 0.00 0.00 0.00 0.00 0.00 0.00 0.00 0.00 0.00 0.00 0.00 0.00 0.00 0.00 0.00 0.00 0.00 0.00 0.00 0.00 0.00 0.00 0.00 0.00 0.00 0.00
0.03 0.00 0.00 0.00 0.00 0.00 0.00 0.00 0.00 0.00 0.00 0.00 0.00 0.00 0.00 0.00 0.00 0.00 0.00 0.00 0.00 0.00 0.00 0.00 0.00 0.00 0.00 0.00 0.00 0.00 0.00 0.00 0.00 0.00 0.00 0.00 0.00 0.00 0.00 0.00 0.00 0.00
0.03 0.02 0.00 0.00 0.00 0.00 0.00 0.00 0.00 0.00 0.00 0.00 0.00 0.00 0.00 0.00 0.00 0.00 0.00 0.00 0.00 0.00 0.00 0.00 0.00 0.00 0.00 0.00 0.00 0.00 0.00 0.00 0.00 0.00 0.00 0.00 0.00 0.00 0.00 0.00 0.00 0.00
0.09 0.01 0.00 0.01 0.00 0.00 0.00 0.00 0.00 0.00 0.00 0.00 0.00 0.00 0.00 0.00 0.00 0.00 0.00 0.00 0.00 0.00 0.00 0.00 0.00 0.00 0.00 0.00 0.00 0.00 0.00 0.00 0.00 0.00 0.00 0.00 0.00 0.00 0.00 0.00 0.00 0.00
0.09 0.04 0.07 0.01 0.01 0.00 0.00 0.00 0.00 0.00 0.00 0.00 0.00 0.00 0.00 0.00 0.00 0.00 0.00 0.00 0.00 0.00 0.00 0.00 0.00 0.00 0.00 0.00 0.00 0.00 0.00 0.00 0.00 0.00 0.00 0.00 0.00 0.00 0.00 0.00 0.00 0.00
0.03 0.23 0.38 0.34 0.04 0.00 0.00 0.00 0.00 0.00 0.00 0.00 0.00 0.00 0.00 0.00 0.00 0.00 0.00 0.00 0.00 0.00 0.00 0.00 0.00 0.00 0.00 0.00 0.00 0.00 0.00 0.00 0.00 0.00 0.00 0.00 0.00 0.00 0.00 0.00 0.00 0.00
0.12 0.17 0.35 0.23 0.07 0.00 0.00 0.00 0.00 0.00 0.00 0.00 0.00 0.00 0.00 0.00 0.00 0.00 0.00 0.00 0.00 0.00 0.00 0.00 0.00 0.00 0.00 0.00 0.00 0.00 0.00 0.00 0.00 0.00 0.00 0.00 0.00 0.00 0.00 0.00 0.00 0.00
0.30 0.47 0.63 0.46 0.36 0.16 0.24 0.08 0.06 0.02 0.00 0.00 0.00 0.00 0.00 0.00 0.00 0.00 0.00 0.00 0.00 0.00 0.00 0.00 0.00 0.00 0.00 0.00 0.00 0.00 0.00 0.00 0.00 0.00 0.00 0.00 0.00 0.00 0.00 0.00 0.00 0.00
0.26 0.29 0.24 0.30 0.65 0.55 0.54 0.29 0.33 0.30 0.40 0.07 0.02 0.01 0.00 0.00 0.00 0.00 0.00 0.00 0.00 0.00 0.00 0.00 0.00 0.00 0.00 0.00 0.00 0.00 0.00 0.00 0.00 0.00 0.00 0.00 0.00 0.00 0.00 0.00 0.00 0.00
0.10 0.18 0.32 0.36 0.44 0.44 0.34 0.81 0.73 0.77 0.77 0.55 0.26 0.26 0.10 0.01 0.00 0.00 0.00 0.00 0.00 0.00 0.00 0.00 0.00 0.00 0.00 0.00 0.00 0.00 0.00 0.00 0.00 0.00 0.00 0.00 0.00 0.00 0.00 0.00 0.00 0.00
0.10 0.19 0.30 0.35 0.65 0.77 0.62 0.48 0.67 0.54 0.40 0.80 0.63 0.48 0.04 0.02 0.00 0.00 0.00 0.00 0.00 0.00 0.00 0.00 0.00 0.00 0.00 0.00 0.00 0.00 0.00 0.00 0.00 0.00 0.00 0.00 0.00 0.00 0.00 0.00 0.00 0.00
0.01 0.07 0.15 0.24 0.26 0.37 0.58 0.34 0.68 0.66 0.57 0.58 0.59 0.20 0.03 0.02 0.03 0.07 0.01 0.01 0.00 0.00 0.00 0.00 0.00 0.00 0.00 0.00 0.00 0.00 0.00 0.00 0.00 0.00 0.00 0.00 0.00 0.00 0.00 0.00 0.00 0.00
0.05 0.05 0.03 0.07 0.16 0.25 0.36 0.54 0.61 0.40 0.39 0.50 0.36 0.26 0.10 0.18 0.09 0.08 0.11 0.09 0.13 0.12 0.14 0.02 0.02 0.01 0.00 0.00 0.00 0.00 0.00 0.00 0.00 0.00 0.00 0.00 0.00 0.00 0.00 0.00 0.00 0.00
0.02 0.05 0.03 0.04 0.11 0.45 0.64 0.38 0.44 0.31 0.16 0.27 0.32 0.10 0.05 0.04 0.10 0.15 0.15 0.19 0.11 0.11 0.05 0.14 0.05 0.06 0.01 0.00 0.00 0.00 0.00 0.00 0.00 0.00 0.00 0.00 0.00 0.00 0.00 0.00 0.00 0.00
0.00 0.01 0.01 0.01 0.07 0.42 0.31 0.31 0.37 0.15 0.13 0.03 0.01 0.01 0.02 0.03 0.07 0.01 0.01 0.01 0.08 0.19 0.20 0.11 0.03 0.01 0.01 0.00 0.00 0.00 0.00 0.00 0.00 0.00 0.00 0.00 0.00 0.00 0.00 0.00 0.00 0.00
0.00 0.00 0.00 0.00 0.06 0.27 0.22 0.02 0.04 0.11 0.20 0.15 0.06 0.03 0.01 0.00 0.00 0.00 0.00 0.00 0.00 0.00 0.00 0.00 0.03 0.12 0.03 0.09 0.02 0.01 0.01 0.00 0.00 0.00 0.00 0.00 0.00 0.00 0.00 0.00 0.00 0.00
0.00 0.01 0.06 0.08 0.07 0.08 0.02 0.02 0.03 0.02 0.02 0.07 0.03 0.01 0.08 0.11 0.08 0.06 0.00 0.00 0.00 0.00 0.00 0.00 0.00 0.01 0.12 0.20 0.22 0.02 0.00 0.00 0.00 0.00 0.00 0.00 0.00 0.00 0.00 0.00 0.00 0.00
MSLP
1015.51 1015.63 1015.87 1016.03 1016.07 1016.11 1016.27 1016.55 1016.55 1016.71 1016.79 1016.75 1017.11 1017.07 1017.03 1017.03 1016.87 1017.15 1017.31 1017.47 1017.63 1017.87 1017.95 1017.99 1018.07 1018.27 1018.35 1018.43 1018.59 1018.83 1018.99 1019.07 1019.07 1019.15 1019.39 1019.55 1019.75 1019.79 1019.75 1019.71 1019.67 1019.71
1015.35 1015.47 1015.59 1015.71 1015.87 1015.87 1015.91 1015.95 1016.23 1016.35 1016.63 1016.47 1016.43 1016.51 1016.51 1016.71 1016.75 1016.83 1017.11 1017.35 1017.47 1017.67 1017.71 1017.87 1018.03 1018.15 1018.31 1018.43 1018.55 1018.87 1019.11 1019.11 1019.31 1018.79 1019.39 1019.59 1019.63 1019.59 1019.59 1019.47 1019.55 1019.43
1015.23 1015.39 1015.55 1015.75 1015.83 1015.87 1015.75 1015.71 1015.87 1016.03 1016.19 1016.19 1016.11 1016.23 1016.47 1016.35 1016.59 1016.55 1016.71 1017.03 1017.39 1017.43 1017.67 1017.75 1017.95 1018.07 1018.19 1018.31 1018.47 1018.75 1018.99 1019.15 1019.31 1018.87 1019.15 1019.47 1019.43 1019.59 1019.43 1019.19 1019.35 1019.47
1015.07 1015.11 1015.23 1015.35 1015.35 1015.59 1015.51 1015.67 1015.75 1015.87 1015.79 1016.11 1016.19 1016.03 1016.15 1016.11 1016.35 1016.63 1016.71 1016.83 1017.15 1017.31 1017.51 1017.71 1017.87 1017.91 1018.07 1018.19 1018.43 1018.71 1018.79 1018.95 1018.91 1018.83 1019.07 1019.19 1019.31 1019.31 1019.39 1019.23 1019.19 1019.23
1014.87 1014.95 1014.95 1015.03 1015.03 1015.11 1015.31 1015.51 1015.63 1015.71 1015.75 1015.75 1015.83 1015.79 1015.99 1016.07 1016.35 1016.59 1016.75 1016.91 1016.99 1017.23 1017.31 1017.55 1017.67 1017.83 1017.95 1018.15 1018.31 1018.71 1018.67 1018.91 1018.79 1018.83 1019.15 1019.35 1019.23 1019.31 1019.23 1019.23 1019.43 1019.47
1014.55 1014.63 1014.71 1014.87 1014.87 1014.99 1015.27 1015.39 1015.39 1015.43 1015.55 1015.59 1015.71 1015.59 1015.83 1015.91 1016.19 1016.43 1016.63 1016.87 1016.91 1017.07 1017.19 1017.35 1017.59 1017.75 1017.87 1018.03 1018.23 1018.55 1018.55 1018.75 1018.75 1018.87 1019.23 1019.39 1019.31 1019.07 1019.07 1019.11 1019.35 1019.63
1014.43 1014.51 1014.67 1014.63 1014.75 1014.75 1014.99 1015.11 1015.19 1015.15 1015.23 1015.15 1015.23 1015.55 1015.55 1015.83 1016.07 1016.19 1016.39 1016.59 1016.71 1016.91 1016.99 1017.19 1017.43 1017.59 1017.63 1017.83 1018.19 1018.51 1018.51 1018.51 1018.67 1018.91 1019.19 1019.27 1019.31 1019.27 1018.99 1018.99 1019.27 1019.55
1014.11 1014.19 1014.39 1014.51 1014.71 1014.71 1014.87 1014.87 1014.95 1015.07 1014.95 1015.03 1015.27 1015.27 1015.27 1015.59 1015.87 1015.91 1016.07 1016.27 1016.55 1016.71 1016.83 1016.87 1017.15 1017.39 1017.43 1017.71 1018.15 1018.43 1018.55 1018.39 1018.63 1018.87 1019.11 1019.23 1019.23 1019.51 1019.31 1019.11 1019.15 1019.47
1013.87 1014.07 1014.19 1014.43 1014.59 1014.63 1014.75 1014.67 1014.67 1014.79 1014.75 1014.99 1015.07 1015.03 1015.03 1015.19 1015.51 1015.67 1015.87 1016.07 1016.31 1016.47 1016.67 1016.75 1016.91 1017.15 1017.23 1017.47 1017.83 1018.15 1018.43 1018.39 1018.31 1018.71 1018.99 1019.23 1019.39 1019.43 1019.35 1019.23 1019.39 1019.47
1013.91 1013.87 1014.03 1014.23 1014.43 1014.35 1014.47 1014.43 1014.31 1014.43 1014.55 1014.83 1014.83 1014.71 1014.99 1015.03 1015.07 1015.39 1015.63 1015.95 1016.23 1016.39 1016.51 1016.67 1016.79 1016.95 1017.11 1017.23 1017.51 1017.75 1018.07 1018.31 1018.23 1018.31 1018.55 1018.83 1019.07 1019.15 1019.19 1019.23 1019.43 1019.59
1014.31 1013.87 1013.91 1014.07 1014.11 1014.03 1014.11 1014.11 1014.11 1014.11 1014.27 1014.59 1014.67 1014.75 1014.63 1014.87 1015.11 1015.07 1015.47 1015.79 1016.11 1016.27 1016.43 1016.59 1016.71 1016.75 1016.99 1017.15 1017.23 1017.31 1017.63 1017.87 1018.11 1018.19 1018.27 1018.47 1018.67 1018.79 1018.87 1019.03 1019.19 1019.43
1014.59 1014.71 1014.31 1013.87 1013.87 1013.83 1013.83 1013.79 1013.83 1013.87 1013.99 1014.23 1014.43 1014.75 1014.59 1014.55 1014.99 1015.11 1015.27 1015.63 1015.79 1015.95 1016.11 1016.35 1016.47 1016.63 1016.83 1016.99 1017.07 1017.19 1017.39 1017.55 1017.75 1017.99 1018.11 1018.23 1018.31 1018.43 1018.55 1018.63 1018.87 1019.03
1014.95 1014.59 1014.71 1014.23 1013.79 1013.79 1013.51 1013.55 1013.63 1013.63 1013.71 1013.95 1014.15 1014.39 1014.63 1014.59 1014.59 1015.03 1015.07 1015.31 1015.55 1015.71 1015.99 1016.15 1016.35 1016.47 1016.71 1016.87 1016.99 1017.03 1017.23 1017.51 1017.63 1017.75 1017.95 1018.07 1018.11 1018.23 1018.23 1018.31 1018.43 1018.55
1015.11 1015.27 1015.39 1015.63 1015.11 1014.11 1013.63 1013.43 1013.35 1013.47 1013.55 1013.51 1013.75 1014.23 1014.43 1014.47 1014.39 1014.63 1014.91 1015.11 1015.31 1015.55 1015.71 1015.83 1016.15 1016.39 1016.59 1016.71 1016.87 1016.95 1017.07 1017.27 1017.43 1017.63 1017.79 1017.91 1017.91 1017.91 1017.95 1018.03 1018.03 1018.15
1015.03 1015.71 1016.07 1016.15 1015.95 1015.87 1014.59 1013.71 1013.47 1013.39 1013.43 1013.55 1013.63 1013.87 1013.99 1014.07 1014.11 1014.11 1014.51 1014.99 1015.15 1015.39 1015.63 1015.71 1015.95 1016.23 1016.31 1016.51 1016.79 1016.95 1016.91 1017.03 1017.19 1017.39 1017.55 1017.71 1017.75 1017.71 1017.67 1017.71 1017.75 1017.67
1014.67 1015.39 1016.27 1016.55 1016.35 1015.91 1015.67 1015.43 1014.83 1013.95 1013.71 1013.71 1013.67 1013.67 1013.75 1013.91 1014.03 1014.11 1014.15 1014.59 1015.03 1015.27 1015.43 1015.63 1015.79 1015.75 1015.91 1016.11 1016.27 1016.51 1016.75 1016.75 1016.83 1017.07 1017.23 1017.39 1017.59 1017.67 1017.59 1017.47 1017.43 1017.43
1014.91 1015.23 1016.15 1017.23 1016.75 1015.87 1015.23 1015.27 1016.23 1016.75 1015.71 1014.39 1013.99 1013.75 1013.79 1013.83 1013.99 1014.23 1014.27 1014.19 1014.51 1014.87 1015.27 1015.39 1015.43 1015.35 1015.51 1015.87 1016.11 1016.23 1016.35 1016.67 1016.83 1016.91 1016.95 1017.15 1017.31 1017.55 1017.71 1017.51 1017.23 1017.03
1015.27 1015.23 1015.63 1016.19 1016.39 1016.39 1015.87 1015.55 1016.11 1016.87 1017.55 1017.31 1016.23 1014.91 1014.03 1013.87 1014.11 1014.19 1014.23 1014.23 1014.15 1014.31 1014.71 1014.99 1015.11 1015.03 1015.27 1015.55 1015.75 1015.95 1016.11 1016.31 1016.47 1016.67 1016.71 1016.87 1016.99 1017.15 1017.23 1017.23 1017.27 1017.11
1015.23 1015.47 1015.75 1015.99 1016.31 1016.55 1016.63 1016.35 1016.03 1016.27 1016.83 1017.27 1017.63 1017.27 1016.51 1015.35 1014.55 1014.19 1014.31 1014.19 1014.27 1014.39 1014.39 1014.35 1014.59 1014.63 1014.99 1015.31 1015.47 1015.67 1015.91 1016.11 1016.19 1016.35 1016.51 1016.59 1016.59 1016.71 1016.83 1016.95 1016.95 1017.07
1015.87 1015.99 1016.07 1016.15 1016.15 1016.27 1016.55 1016.55 1016.55 1016.27 1015.83 1015.99 1016.51 1016.59 1016.59 1016.63 1015.95 1015.07 1014.43 1014.31 1014.27 1014.31 1014.35 1014.15 1014.07 1014.03 1014.39 1014.71 1014.99 1015.31 1015.59 1015.83 1015.95 1016.07 1016.15 1016.19 1016.27 1016.27 1016.31 1016.47 1016.59 1016.75
1016.27 1016.31 1016.35 1016.31 1016.27 1016.35 1016.39 1016.47 1016.43 1016.23 1015.99 1015.71 1015.31 1015.43 1015.91 1016.31 1016.35 1016.11 1015.71 1015.35 1014.95 1014.51 1014.31 1014.15 1013.67 1013.83 1014.07 1014.11 1014.35 1014.75 1014.99 1015.39 1015.51 1015.63 1015.79 1015.87 1015.83 1015.83 1015.87 1015.95 1016.03 1016.07
1016.63 1016.67 1016.59 1016.39 1016.31 1016.27 1016.27 1016.31 1016.31 1016.23 1016.03 1015.67 1015.63 1015.71 1015.79 1015.99 1016.19 1016.07 1015.99 1015.79 1015.39 1015.27 1015.15 1014.95 1014.43 1014.31 1014.59 1014.87 1014.83 1014.47 1014.59 1015.07 1015.19 1015.35 1015.55 1015.63 1015.67 1015.59 1015.55 1015.47 1015.51 1015.63
1016.43 1016.59 1016.67 1016.47 1016.31 1016.31 1016.31 1016.19 1016.11 1016.11 1015.79 1015.35 1015.35 1015.31 1015.35 1015.39 1015.55 1015.51 1015.35 1015.39 1015.39 1015.43 1015.59 1015.47 1015.11 1014.67 1014.63 1014.71 1014.91 1015.39 1015.23 1014.87 1014.87 1015.03 1015.19 1015.31 1015.31 1015.27 1015.27 1015.23 1015.19 1015.19
1016.27 1016.27 1016.43 1016.43 1016.39 1016.47 1016.35 1016.07 1015.91 1015.79 1015.71 1015.31 1015.47 1015.47 1015.39 1015.15 1015.11 1015.03 1014.83 1014.75 1014.91 1015.07 1014.99 1015.15 1014.91 1014.47 1014.39 1014.51 1014.79 1014.95 1015.55 1015.19 1014.83 1014.95 1015.03 1014.99 1014.91 1014.75 1014.75 1014.83 1014.83 1014.87
1016.11 1016.07 1016.19 1016.19 1016.43 1016.51 1016.35 1016.23 1015.99 1015.79 1015.55 1015.39 1015.35 1015.31 1015.35 1015.23 1015.27 1015.27 1015.07 1014.79 1014.63 1014.63 1014.55 1014.75 1014.63 1014.31 1014.31 1014.51 1014.59 1014.67 1014.87 1014.87 1014.67 1014.67 1014.87 1014.79 1014.79 1014.79 1014.51 1014.51 1014.51 1014.43
1015.99 1016.11 1015.99 1015.91 1016.15 1016.31 1016.35 1016.23 1015.87 1015.71 1015.55 1015.47 1015.35 1015.27 1015.39 1015.43 1015.43 1015.35 1015.27 1014.91 1014.43 1014.31 1014.27 1014.23 1014.31 1014.07 1014.11 1014.31 1014.39 1014.43 1014.51 1014.43 1014.23 1014.47 1014.63 1014.51 1014.39 1014.51 1014.71 1014.55 1014.35 1014.27
Thickness
5808 5808 5808 5809 5809 5810 5810 5810 5810 5809 5809 5810 5809 5810 5811 5812 5813 5813 5811 5810 5810 5808 5808 5807 5806 5806 5805 5805 5805 5805 5805 5804 5804 5804 5803 5802 5801 5802 5803 5804 5805 5805
5809 5809 5809 5809 5810 5811 5812 5812 5812 5812 5811 5812 5813 5814 5815 5815 5815 5815 5814 5813 5811 5809 5809 5808 5807 5807 5807 5807 5806 5805 5804 5803 5804 5806 5804 5802 5802 5803 5804 5805 5806 5806
5810 5810 5810 5809 5810 5811 5813 5815 5814 5814 5814 5814 5816 5815 5816 5817 5816 5816 5816 5814 5812 5811 5811 5809 5809 5808 5807 5808 5807 5806 5805 5803 5804 5807 5806 5804 5804 5804 5805 5807 5808 5808
5811 5811 5812 5811 5812 5813 5814 5815 5815 5816 5816 5815 5816 5817 5817 5818 5817 5816 5816 5815 5814 5813 5812 5811 5810 5810 5808 5809 5808 5806 5806 5805 5806 5808 5806 5805 5806 5805 5807 5808 5808 5809
5812 5813 5813 5813 5814 5815 5815 5815 5815 5816 5817 5816 5817 5818 5818 5818 5817 5816 5815 5815 5815 5813 5814 5812 5811 5811 5810 5809 5809 5807 5807 5807 5807 5808 5806 5805 5806 5806 5808 5808 5807 5808
5813 5814 5815 5814 5816 5816 5815 5815 5816 5817 5818 5818 5820 5820 5819 5819 5818 5817 5816 5815 5815 5814 5814 5813 5812 5812 5811 5810 5809 5807 5808 5807 5808 5808 5806 5805 5806 5807 5809 5809 5807 5806
5814 5815 5816 5815 5816 5816 5816 5816 5817 5818 5819 5820 5821 5821 5820 5820 5818 5818 5818 5816 5816 5815 5815 5814 5813 5812 5812 5812 5809 5807 5808 5808 5808 5807 5806 5806 5806 5806 5809 5809 5808 5806
5814 5815 5816 5816 5816 5816 5817 5818 5818 5819 5820 5821 5821 5821 5822 5821 5820 5819 5819 5818 5817 5816 5816 5815 5814 5814 5813 5812 5810 5807 5807 5808 5809 5807 5805 5806 5805 5805 5807 5808 5808 5806
5813 5814 5815 5815 5816 5816 5817 5819 5819 5820 5821 5820 5821 5823 5824 5823 5822 5822 5821 5819 5818 5817 5817 5816 5815 5815 5814 5813 5811 5808 5808 5808 5809 5808 5806 5805 5805 5804 5806 5807 5806 5806
5811 5813 5814 5814 5815 5816 5817 5819 5820 5822 5821 5821 5821 5823 5824 5824 5824 5824 5822 5819 5818 5817 5817 5816 5816 5816 5815 5814 5813 5811 5809 5809 5809 5810 5808 5807 5806 5805 5806 5806 5805 5805
5807 5809 5812 5813 5815 5817 5818 5819 5821 5822 5822 5821 5821 5822 5824 5824 5823 5823 5822 5820 5818 5818 5817 5817 5816 5816 5815 5814 5814 5813 5812 5811 5810 5810 5809 5808 5807 5807 5807 5807 5806 5805
5803 5805 5808 5812 5814 5816 5818 5820 5821 5822 5823 5822 5821 5822 5823 5824 5823 5823 5822 5820 5819 5819 5818 5817 5817 5816 5815 5814 5814 5814 5813 5812 5811 5810 5809 5809 5809 5808 5809 5808 5808 5806
5800 5802 5802 5806 5810 5814 5817 5819 5821 5822 5823 5823 5822 5822 5822 5823 5824 5822 5822 5821 5820 5819 5819 5817 5817 5816 5815 5814 5814 5814 5813 5812 5811 5810 5809 5809 5809 5809 5809 5809 5809 5809
5796 5794 5793 5795 5799 5805 5813 5817 5819 5820 5821 5823 5823 5822 5821 5822 5824 5824 5822 5821 5820 5819 5818 5818 5817 5815 5814 5814 5813 5813 5813 5812 5811 5810 5809 5809 5809 5809 5810 5810 5810 5811
5795 5789 5788 5790 5791 5794 5801 5809 5814 5817 5819 5820 5821 5821 5821 5822 5824 5824 5823 5821 5819 5819 5818 5817 5816 5815 5815 5814 5813 5812 5813 5812 5812 5811 5810 5809 5809 5809 5810 5811 5811 5812
5794 5790 5785 5783 5786 5790 5795 5799 5802 5806 5811 5815 5817 5819 5820 5821 5821 5822 5823 5821 5819 5818 5817 5817 5817 5817 5816 5815 5813 5813 5812 5813 5813 5812 5812 5810 5809 5808 5809 5810 5811 5813
5789 5788 5783 5778 5781 5786 5793 5796 5791 5788 5792 5800 5809 5814 5816 5817 5817 5818 5819 5821 5820 5817 5816 5816 5817 5818 5816 5814 5813 5813 5812 5812 5811 5811 5812 5811 5810 5809 5808 5809 5811 5813
5784 5786 5782 5778 5777 5777 5783 5790 5789 5783 5780 5782 5790 5798 5806 5810 5813 5814 5814 5817 5818 5818 5816 5816 5816 5817 5816 5814 5812 5812 5811 5811 5811 5810 5811 5811 5811 5810 5809 5809 5810 5811
5780 5781 5780 5778 5777 5774 5774 5780 5785 5786 5784 5779 5779 5784 5791 5797 5803 5808 5811 5812 5814 5814 5815 5816 5816 5816 5815 5813 5811 5810 5809 5809 5810 5809 5810 5811 5811 5811 5810 5810 5810 5810
5773 5774 5774 5774 5776 5775 5773 5774 5778 5785 5789 5789 5788 5788 5789 5790 5794 5801 5806 5808 5811 5813 5815 5817 5819 5818 5817 5814 5812 5809 5807 5807 5808 5809 5809 5810 5811 5812 5812 5811 5811 5810
5764 5766 5767 5769 5771 5772 5772 5772 5774 5780 5786 5792 5795 5796 5793 5789 5788 5792 5796 5800 5805 5808 5811 5815 5818 5819 5818 5817 5816 5813 5810 5808 5808 5809 5809 5809 5810 5812 5812 5813 5813 5813
5756 5758 5761 5765 5768 5769 5770 5772 5773 5777 5782 5788 5792 5793 5792 5789 5788 5789 5791 5793 5797 5799 5801 5805 5810 5813 5813 5813 5814 5814 5812 5812 5811 5810 5810 5809 5810 5811 5812 5813 5814 5814
5752 5754 5756 5760 5763 5766 5768 5771 5773 5775 5780 5785 5787 5788 5790 5791 5792 5793 5795 5796 5797 5797 5797 5799 5802 5806 5807 5808 5808 5808 5807 5810 5812 5812 5812 5812 5813 5813 5813 5813 5814 5815
5751 5752 5754 5756 5758 5760 5764 5768 5771 5773 5777 5782 5784 5785 5787 5790 5792 5793 5795 5797 5798 5798 5799 5800 5802 5805 5807 5807 5807 5804 5802 5805 5808 5809 5810 5813 5815 5816 5817 5816 5815 5815
5749 5750 5752 5754 5754 5755 5760 5764 5768 5771 5774 5777 5780 5781 5782 5785 5786 5787 5789 5793 5796 5797 5799 5799 5800 5804 5805 5804 5805 5805 5803 5804 5806 5806 5807 5809 5811 5813 5815 5816 5816 5817
5745 5746 5748 5752 5752 5752 5756 5759 5763 5767 5770 5772 5775 5776 5778 5780 5782 5783 5784 5788 5793 5795 5797 5799 5800 5802 5803 5801 5801 5802 5802 5803 5805 5806 5807 5807 5809 5810 5811 5813 5814 5816